Погода в Артёмовском

Россия / Свердловская область     57°20′18″N   61°53′40″E
темп.,
°C
ветер,
м/с
пор.,
м/с
влажн.,
%
обл.,
%
осадки,
мм/ч
давл.,
гПа
погр.,
м
22 января, пт
пт2223:00−22зсз259776 0.0 1013115
02:00−22зсз239894 0.0 101452
05:00−23ссз229891 0.1 101541
08:00−25с259889 0.0 1016151
11:00−25с259691 0.1 1017239
14:00−24с249493 0.0 1019284
17:00−27ссз239660 0.0 102232
20:00−26ссз279667 0.0 1025361
23 января, сб
сб2323:00−28ссз269781 0.1 1029178
02:00−31ссз389886 0.0 1031190
05:00−35ссз259750 0.0 103391
08:00−37ссз229739 0.0 103631
11:00−35ссз129663 0.0 103797
14:00−31всв008995 0.0 1037218
17:00−32юв129598 0.0 103626
20:00−31ююв2495100 0.0 1036174
24 января, вс
вс2423:00−30ююв2595100 0.0 1035226
02:00−29юв2598100 0.1 1034235
05:00−29вюв2598100 0.3 1034235
08:00−28вюв2597100 0.2 1035234
11:00−28вюв2497100 0.3 1036241
14:00−26вюв2496100 0.0 1036314
17:00−26вюв3696100 0.0 1036323
20:00−25юв4897100 0.3 1036338
25 января, пн
пн2523:00−24юв3898100 0.7 1035358
02:00−24юв3798100 0.7 1033367
05:00−23юв3798100 1.3 1032344
08:00−22юв3598100 0.8 1032288
11:00−21вюв2497100 1.2 1032250
14:00−19вюв2395100 0.2 1032308
17:00−19вюв2398100 0.4 1033137
20:00−19юв249899 0.1 1033151
26 января, вт
вт2623:00−18юв249899 0.6 1033150
02:00−18юв2497100 0.4 1032171
05:00−16ююв2497100 0.8 1032147
08:00−15ююв249795 0.3 1031100
11:00−9ююв229697 0.6 103188
14:00−4ююв239890 0.1 1030136
17:00−1юз259593 0.1 1030259
20:00−2зюз3793100 0.0 1030361